Home   Weather   Bălți   Past weeks

Flag for Moldova Past Weather in Bălți, Moldova — Yesterday and Last 2 Weeks

Now
86 °F

Passing clouds.


Feels Like: 87 °F
Forecast: 69 / 88 °F
Wind: 5 mph from East

Location: Iasi Airport

Current Time: Jul 24, 2017 at 1:56:57 pm

Latest Report: Jul 24, 2017 at 1:00 pm


Visibility: N/A

Pressure: 29.83 "Hg

Humidity: 46%

Dew Point: 63 °F

Location of BălțiLocation

Past Weather in Bălți — Graph

°F

Bălți Temperature Yesterday

Maximum temperature yesterday: 88 °F (at 4:30 pm)
Minimum temperature yesterday: 66 °F (at 5:30 am)
Average temperature yesterday: 77 °F

High & Low Weather Summary for the Past Weeks

 TemperatureHumidityPressure
High91 °F (Jul 21, 3:30 pm)94% (Jul 16, 5:00 am)30.18 "Hg (Jul 16, 5:00 am)
Low54 °F (Jul 15, 3:30 am)25% (Jul 20, 1:30 pm)29.74 "Hg (Jul 13, 1:30 pm)
Average72 °F56%29.98 "Hg
* Reported Jul 9 12:30 pm — Jul 24 12:30 pm, Bălți. Weather by CustomWeather, © 2017

Note: Actual official high and low records may vary slightly from our data, if they occured in-between our weather recording intervals... More about our weather records

Advertising

Bălți Weather History for the Previous 24 Hours

Scroll right to see more
 ConditionsComfort  
Time TempWeatherWind HumidityBarometerVisibility
12:30 pm
Mon, Jul 24
86 °FScattered clouds.7 mph46%29.83 "HgN/A
12:00 pm84 °FPassing clouds.7 mph48%29.86 "HgN/A
11:30 am84 °FPassing clouds.6 mph48%29.86 "HgN/A
11:00 am82 °FPassing clouds.6 mph51%29.86 "HgN/A
10:30 am79 °FPassing clouds.6 mph54%29.86 "HgN/A
10:00 am79 °FSunny.7 mph54%29.86 "Hg10 mi
9:30 am77 °FSunny.5 mph57%29.86 "Hg10 mi
9:00 am77 °FPassing clouds.5 mph61%29.86 "HgN/A
8:30 am75 °FPassing clouds.5 mph65%29.86 "HgN/A
7:30 am72 °FSunny.5 mph73%29.86 "Hg10 mi
7:00 am70 °FSunny.6 mph73%29.86 "Hg10 mi
6:30 am70 °FSunny.6 mph73%29.86 "Hg10 mi
6:00 am68 °FSunny.5 mph78%29.86 "Hg10 mi
5:30 am70 °FClear.6 mph73%29.86 "Hg10 mi
5:00 am70 °FClear.1 mph78%29.89 "Hg10 mi
4:30 am70 °FClear.1 mph78%29.89 "Hg10 mi
4:00 am70 °FClear.2 mph78%29.89 "Hg10 mi
3:30 am72 °FClear.2 mph73%29.89 "Hg10 mi
2:30 am72 °FClear.3 mph69%29.89 "Hg10 mi
2:00 am73 °FPassing clouds.3 mph65%29.89 "HgN/A
1:30 am73 °FClear.5 mph69%29.89 "Hg10 mi
1:00 am73 °FClear.2 mph69%29.89 "Hg10 mi
12:30 am75 °FClear.3 mph65%29.92 "Hg10 mi
12:00 am75 °FClear.3 mph61%29.92 "Hg10 mi
11:00 pm
Sun, Jul 23
75 °FClear.3 mph61%29.92 "Hg10 mi
10:30 pm77 °FClear.5 mph57%29.92 "Hg10 mi
10:00 pm75 °FClear.5 mph57%29.92 "Hg10 mi
9:30 pm79 °FClear.5 mph51%29.92 "Hg10 mi
8:30 pm81 °FSunny.5 mph54%29.92 "Hg10 mi
8:00 pm84 °FSunny.No wind43%29.89 "Hg10 mi
7:30 pm84 °FPassing clouds.2 mph43%29.89 "HgN/A
7:00 pm86 °FSunny.3 mph40%29.92 "Hg10 mi
6:30 pm86 °FSunny.2 mph40%29.92 "Hg10 mi
6:00 pm86 °FPassing clouds.3 mph40%29.92 "HgN/A
5:30 pm88 °FSunny.3 mph38%29.92 "Hg10 mi
5:00 pm86 °FPassing clouds.3 mph40%29.92 "HgN/A
4:30 pm88 °FSunny.2 mph38%29.92 "Hg10 mi
4:00 pm86 °FPassing clouds.3 mph40%29.92 "HgN/A
3:30 pm86 °FSunny.3 mph43%29.95 "Hg10 mi
2:30 pm84 °FPassing clouds.7 mph43%29.95 "HgN/A
1:30 pm84 °FPassing clouds.5 mph43%29.98 "HgN/A
1:00 pm82 °FPassing clouds.3 mph45%29.98 "HgN/A
Weather by CustomWeather, © 2017

See weather overviewHow to use our weather pages